Date,TemperatureHighF,TemperatureAvgF,TemperatureLowF,DewpointHighF,DewpointAvgF,DewpointLowF,HumidityHigh,HumidityAvg,HumidityLow,PressureMaxIn,PressureMinIn,WindSpeedMaxMPH,WindSpeedAvgMPH,GustSpeedMaxMPH,PrecipitationSumIn
2012-6-5,53.0,52.3,51.0,53.0,52.1,50.0,100,99,96,29.73,29.52,0,-999,0,0.00
2012-6-6,61.0,54.7,51.0,53.0,51.8,49.0,100,90,65,29.51,29.44,0,-999,0,0.00
2012-6-7,60.0,54.6,52.0,57.0,53.9,52.0,100,97,82,29.51,29.03,0,-999,0,0.00
2012-6-8,56.0,53.2,51.0,55.0,51.4,46.0,100,93,83,29.62,29.02,0,-999,0,0.00
2012-6-9,63.0,53.7,49.0,51.0,46.1,39.0,92,76,42,29.86,29.56,0,-999,0,0.00
2012-6-10,57.0,53.4,51.0,52.0,49.7,42.0,98,87,68,29.88,29.75,0,-999,0,0.00
2012-6-11,60.0,54.7,51.0,52.0,50.1,47.0,95,84,69,29.80,29.71,0,-999,0,0.00
2012-6-12,57.0,53.9,52.0,51.0,46.1,38.0,94,75,49,29.96,29.80,0,-999,0,0.00
2012-6-13,60.0,54.5,52.0,53.0,50.0,46.0,93,84,68,30.04,29.96,0,-999,0,0.00
2012-6-14,62.0,55.1,52.0,53.0,50.1,46.0,99,84,54,30.04,29.63,0,-999,0,0.00
2012-6-15,58.0,54.1,53.0,53.0,51.9,49.0,96,91,83,29.66,29.41,0,-999,0,0.00
2012-6-16,58.0,54.8,53.0,54.0,52.0,48.0,98,90,71,0.00,40.00,0,-999,0,0.00
2012-6-17,56.0,53.3,50.0,50.0,44.8,-99.9,91,78,66,0.00,40.00,0,-999,0,0.00
2012-6-18,59.0,54.4,51.0,53.0,49.5,47.0,95,83,69,0.00,40.00,0,-999,0,0.00
2012-6-19,61.0,55.6,51.0,53.0,49.2,46.0,95,79,63,30.11,29.99,0,-999,0,0.00
2012-6-20,62.0,55.8,52.0,53.0,51.6,48.0,97,85,68,30.11,29.89,0,-999,0,0.00
2012-6-21,59.0,55.3,52.0,55.0,53.1,50.0,98,92,83,29.88,29.55,0,-999,0,0.00
2012-6-22,60.0,55.5,53.0,54.0,50.8,47.0,99,85,63,29.92,29.51,0,-999,0,0.00
2012-6-23,60.0,55.8,51.0,53.0,50.2,47.0,95,81,70,30.01,29.86,0,-999,0,0.00
2012-6-24,65.0,57.3,52.0,52.0,51.1,47.0,98,81,51,30.03,29.78,0,-999,0,0.00
2012-6-25,57.0,55.3,53.0,53.0,49.3,47.0,91,80,71,30.12,30.02,0,-999,0,0.00
2012-6-26,73.0,58.9,53.0,64.0,55.6,50.0,100,89,65,30.11,29.99,0,-999,0,0.00
2012-6-27,72.0,59.4,54.0,61.0,57.0,54.0,100,92,65,30.06,29.82,0,-999,0,0.00
2012-6-28,68.0,58.4,55.0,59.0,55.4,48.0,100,91,53,29.88,29.41,0,-999,0,0.00
2012-6-29,67.0,59.5,55.0,57.0,53.7,51.0,100,82,54,0.00,40.00,0,-999,0,0.00
2012-6-30,58.0,56.0,54.0,54.0,50.1,42.0,93,81,58,0.00,40.00,0,-999,0,0.00
2012-7-1,60.0,55.7,53.0,54.0,49.6,47.0,98,80,66,29.91,29.69,0,-999,0,0.00
2012-7-2,68.0,58.5,55.0,60.0,56.6,55.0,100,94,70,29.82,29.73,0,-999,0,0.00
2012-7-3,60.0,57.1,55.0,59.0,56.5,55.0,100,97,89,29.83,29.67,0,-999,0,0.00
2012-7-4,60.0,56.7,55.0,58.0,55.2,53.0,100,95,79,29.78,29.65,0,-999,0,0.00
2012-7-5,59.0,56.6,54.0,57.0,54.6,54.0,98,93,88,29.88,29.78,0,-999,0,0.00
2012-7-6,63.0,57.8,56.0,62.0,56.9,54.0,100,97,89,29.88,29.60,0,-999,0,0.00
2012-7-7,65.0,58.6,55.0,57.0,55.2,54.0,98,88,69,29.82,29.71,0,-999,0,0.00
2012-7-8,58.0,55.8,54.0,56.0,54.2,52.0,99,94,86,29.87,29.74,0,-999,0,0.00
2012-7-9,58.0,54.7,52.0,54.0,52.5,50.0,100,92,85,29.92,29.81,0,-999,0,0.00
2012-7-10,60.0,55.0,51.0,54.0,50.5,46.0,96,85,65,29.92,29.84,0,-999,0,0.00
2012-7-11,59.0,54.8,52.0,54.0,48.2,44.0,96,79,59,29.92,29.79,0,-999,0,0.00
2012-7-12,61.0,54.7,50.0,52.0,49.2,47.0,90,81,58,29.92,29.67,0,-999,0,0.00
2012-7-13,58.0,56.2,55.0,54.0,53.1,49.0,98,89,78,29.65,29.52,0,-999,0,0.00
2012-7-14,59.0,55.5,51.0,54.0,48.0,42.0,95,76,54,29.88,29.60,0,-999,0,0.00
2012-7-15,64.0,56.8,51.0,54.0,48.2,45.0,93,73,57,30.03,29.88,0,-999,0,0.00
2012-7-16,67.0,59.7,56.0,61.0,55.6,54.0,97,87,64,30.10,29.88,0,-999,0,0.00
2012-7-17,74.0,61.9,56.0,62.0,57.3,55.0,98,86,58,30.18,29.96,0,-999,0,0.00
2012-7-18,63.0,59.3,57.0,59.0,55.2,53.0,100,86,69,29.97,29.79,0,-999,0,0.00
2012-7-19,60.0,56.5,52.0,55.0,50.2,47.0,91,79,63,29.98,29.75,0,-999,0,0.00
2012-7-20,60.0,56.3,54.0,52.0,49.9,48.0,88,78,65,30.19,29.99,0,-999,0,0.00
2012-7-21,67.0,57.5,52.0,54.0,51.2,47.0,93,79,48,30.29,30.18,0,-999,0,0.00
2012-7-22,70.0,60.9,57.0,61.0,56.0,51.0,98,84,69,30.29,30.06,0,-999,0,0.00
2012-7-23,75.0,62.8,58.0,64.0,60.0,58.0,100,91,66,30.14,29.95,0,-999,0,0.00
2012-7-24,63.0,59.5,57.0,63.0,59.2,57.0,100,98,89,30.09,30.00,0,-999,0,0.00
2012-7-25,63.0,58.7,56.0,58.0,54.5,51.0,100,86,63,30.20,30.06,0,-999,0,0.00
2012-7-26,65.0,58.9,55.0,58.0,53.3,46.0,99,82,51,30.17,30.08,0,-999,0,0.00
2012-7-27,63.0,58.8,56.0,55.0,49.9,44.0,91,72,49,30.08,29.98,0,-999,0,0.00
2012-7-28,59.0,55.8,52.0,52.0,49.4,46.0,88,79,70,29.98,29.79,0,-999,0,0.00
2012-7-29,61.0,55.4,51.0,51.0,48.2,44.0,89,76,57,29.93,29.78,0,-999,0,0.00
2012-7-30,62.0,56.5,51.0,53.0,49.1,46.0,89,76,56,30.00,29.88,0,-999,0,0.00
2012-7-31,63.0,58.0,55.0,59.0,54.1,49.0,98,86,74,29.95,29.61,0,-999,0,0.00
2012-8-1,66.0,60.8,58.0,60.0,56.8,48.0,98,87,53,29.74,29.42,0,-999,0,0.00
2012-8-2,67.0,59.9,56.0,57.0,53.2,46.0,94,80,47,29.77,29.66,0,-999,0,0.00
2012-8-3,62.0,59.2,57.0,58.0,56.1,55.0,95,89,79,29.80,29.66,0,-999,0,0.00
2012-8-4,64.0,59.6,58.0,57.0,56.0,54.0,96,88,70,29.76,29.65,0,-999,0,0.00
2012-8-5,60.0,57.7,54.0,57.0,55.9,54.0,98,94,86,29.76,29.71,0,-999,0,0.00
2012-8-6,65.0,58.1,53.0,57.0,52.6,49.0,98,83,57,29.93,29.71,0,-999,0,0.00
2012-8-7,63.0,59.2,57.0,58.0,55.3,52.0,97,86,70,30.16,29.93,0,-999,0,0.00
2012-8-8,58.0,56.8,53.0,58.0,56.2,53.0,100,97,93,30.29,30.17,0,-999,0,0.00
2012-8-9,63.0,58.9,55.0,60.0,56.7,55.0,100,93,81,30.38,30.30,0,-999,0,0.00
2012-8-10,73.0,62.6,59.0,60.0,56.9,52.0,93,82,60,30.38,30.23,0,-999,0,0.00
2012-8-11,72.0,63.7,60.0,60.0,57.8,55.0,90,81,55,30.24,29.91,0,-999,0,0.00
2012-8-12,67.0,61.0,60.0,61.0,55.4,-99.9,97,86,61,29.96,29.70,0,-999,0,0.00
2012-8-13,67.0,61.9,59.0,62.0,59.5,58.0,99,91,76,29.80,29.50,0,-999,0,0.00
2012-8-14,68.0,61.8,59.0,60.0,58.6,56.0,98,89,69,29.82,29.71,0,-999,0,0.00
2012-8-15,67.0,62.5,60.0,62.0,58.2,56.0,92,86,74,29.79,29.23,0,-999,0,0.00
2012-8-16,66.0,61.0,58.0,58.0,56.9,54.0,96,86,73,29.84,29.43,0,-999,0,0.00
2012-8-17,65.0,61.8,59.0,63.0,60.4,57.0,100,95,78,29.77,29.60,0,-999,0,0.00
2012-8-18,71.0,62.8,60.0,63.0,58.9,53.0,100,88,53,30.01,29.74,0,-999,0,0.00
2012-8-19,66.0,61.1,59.0,60.0,57.9,54.0,100,90,76,30.06,29.97,0,-999,0,0.00
2012-8-20,72.0,63.4,59.0,60.0,57.8,53.0,97,83,57,30.09,29.99,0,-999,0,0.00
2012-8-21,67.0,61.3,58.0,60.0,56.2,50.0,96,84,55,30.09,29.86,0,-999,0,0.00
2012-8-22,67.0,60.9,58.0,56.0,53.8,51.0,88,78,56,30.02,29.91,0,-999,0,0.00
2012-8-23,63.0,59.8,57.0,57.0,53.9,51.0,93,80,65,30.01,29.78,0,-999,0,0.00
2012-8-24,64.0,58.7,56.0,57.0,54.7,51.0,95,87,62,29.79,29.46,0,-999,0,0.00
2012-8-25,63.0,59.1,56.0,58.0,55.2,50.0,97,87,67,29.85,29.45,0,-999,0,0.00
2012-8-26,63.0,58.3,52.0,57.0,52.6,50.0,92,81,67,30.04,29.85,0,-999,0,0.00
2012-8-27,68.0,60.5,59.0,60.0,57.6,54.0,98,90,66,29.94,29.51,0,-999,0,0.00
2012-8-28,65.0,59.7,56.0,57.0,52.4,47.0,90,77,51,29.88,29.67,0,-999,0,0.00
2012-8-29,63.0,59.2,54.0,58.0,53.6,48.0,98,82,68,29.76,29.58,0,-999,0,0.00
2012-8-30,61.0,57.3,53.0,56.0,47.5,43.0,91,70,54,30.40,29.72,0,-999,0,0.00
2012-8-31,63.0,58.0,53.0,56.0,49.6,45.0,93,73,61,30.45,30.33,0,-999,0,0.00
2012-9-1,67.0,61.3,58.0,57.0,54.4,52.0,89,78,58,30.35,30.13,0,-999,0,0.00
2012-9-2,60.0,60.0,60.0,58.0,58.0,58.0,93,93,93,30.17,30.17,0,-999,0,0.00
2012-9-3,71.0,64.5,59.0,60.0,58.1,57.0,94,80,63,30.35,30.18,0,-999,0,0.00
2012-9-4,64.0,60.2,59.0,61.0,52.8,45.0,100,77,51,30.40,30.19,0,-999,0,0.00
2012-9-5,61.0,57.3,51.0,52.0,49.7,48.0,89,76,67,30.47,30.35,0,-999,0,0.00
2012-9-6,71.0,60.1,53.0,58.0,52.2,47.0,91,76,51,30.44,30.19,0,-999,0,0.00
2012-9-7,68.0,60.9,58.0,60.0,57.0,54.0,96,87,75,30.29,30.15,0,-999,0,0.00
2012-9-8,67.0,59.7,58.0,61.0,56.3,52.0,100,88,70,30.25,29.91,0,-999,0,0.00
2012-9-9,68.0,61.0,54.0,60.0,56.7,49.0,97,86,66,29.94,29.57,0,-999,0,0.00
2012-9-10,61.0,58.1,53.0,59.0,55.0,48.0,96,89,80,29.77,29.63,0,-999,0,0.00
2012-9-11,58.0,53.8,49.0,49.0,44.8,41.0,84,72,58,30.02,29.71,0,-999,0,0.00
2012-9-12,60.0,56.0,53.0,55.0,47.5,40.0,87,74,52,30.14,29.87,0,-999,0,0.00
2012-9-13,64.0,57.2,49.0,56.0,49.6,42.0,87,75,61,30.17,30.10,0,-999,0,0.00
2012-9-14,63.0,59.3,56.0,55.0,50.3,46.0,85,72,55,0.00,40.00,0,-999,0,0.00
2012-9-15,62.0,58.0,54.0,53.0,50.6,49.0,86,76,67,29.96,29.93,0,-999,0,0.00
2012-9-16,61.0,58.2,55.0,59.0,51.9,44.0,97,80,52,29.93,29.71,0,-999,0,0.00
2012-9-17,58.0,55.8,53.0,50.0,47.8,46.0,79,74,66,0.00,40.00,0,-999,0,0.00
2012-9-18,56.0,52.8,47.0,48.0,43.9,40.0,86,72,59,0.00,40.00,0,-999,0,0.00
2012-9-19,55.0,51.2,46.0,46.0,44.0,41.0,83,76,69,0.00,40.00,0,-999,0,0.00
2012-9-20,60.0,58.5,57.0,52.0,51.0,50.0,80,76,72,30.04,29.99,0,-999,0,0.00
2012-9-21,58.0,53.2,49.0,53.0,45.5,39.0,93,75,59,30.16,29.98,0,-999,0,0.00
2012-9-22,56.0,52.2,44.0,44.0,40.1,36.0,87,64,46,30.20,30.06,0,-999,0,0.00
2012-9-23,56.0,52.7,47.0,49.0,43.0,-99.9,82,73,62,30.09,29.50,0,-999,0,0.00
2012-9-24,54.0,51.5,49.0,52.0,49.2,46.0,96,92,81,29.50,29.11,0,-999,0,0.00
2012-9-25,54.0,52.3,49.0,51.0,48.9,47.0,95,88,79,29.12,28.94,0,-999,0,0.00
2012-9-26,58.0,55.0,52.0,52.0,49.7,47.0,93,82,69,29.69,28.96,0,-999,0,0.00
2012-9-27,58.0,53.8,48.0,52.0,47.4,44.0,88,79,63,29.85,29.67,0,-999,0,0.00
2012-9-28,59.0,55.5,52.0,53.0,48.0,43.0,90,76,60,29.93,29.72,0,-999,0,0.00
2012-9-29,58.0,54.2,47.0,52.0,45.4,40.0,85,72,62,30.11,29.91,0,-999,0,0.00
2012-9-30,61.0,58.5,56.0,58.0,52.7,47.0,95,81,67,30.01,29.75,0,-999,0,0.00
2012-10-1,59.0,55.7,53.0,54.0,48.2,44.0,90,76,65,29.81,29.65,0,-999,0,0.00
2012-10-2,58.0,54.6,51.0,51.0,46.7,44.0,83,74,67,29.75,29.43,0,-999,0,0.00
2012-10-3,55.0,51.5,48.0,46.0,43.6,41.0,84,74,64,29.63,29.49,0,-999,0,0.00
2012-10-4,55.0,51.5,45.0,48.0,45.2,42.0,94,78,65,29.77,29.59,0,-999,0,0.00
2012-10-5,55.0,52.5,49.0,49.0,44.5,42.0,84,74,65,29.83,29.54,0,-999,0,0.00
2012-10-6,56.0,54.5,51.0,48.0,46.5,45.0,88,75,66,30.12,29.83,0,-999,0,0.00
2012-10-7,56.0,52.7,46.0,46.0,42.8,39.0,82,69,54,30.26,30.10,0,-999,0,0.00
2012-10-8,55.0,53.1,51.0,51.0,47.2,44.0,90,80,69,30.13,29.96,0,-999,0,0.00
2012-10-9,56.0,52.4,46.0,50.0,46.9,42.0,89,81,70,30.06,29.98,0,-999,0,0.00
2012-10-10,58.0,53.8,47.0,56.0,49.2,44.0,98,85,68,30.03,29.70,0,-999,0,0.00
2012-10-11,58.0,54.4,51.0,56.0,51.3,43.0,98,89,74,29.75,29.40,0,-999,0,0.00
2012-10-12,54.0,49.8,44.0,49.0,42.1,39.0,90,75,57,29.74,29.54,0,-999,0,0.00
2012-10-13,53.0,48.4,41.0,45.0,41.5,38.0,90,77,56,29.72,29.63,0,-999,0,0.00
2012-10-14,51.0,47.7,45.0,43.0,41.6,40.0,86,79,65,29.67,29.61,0,-999,0,0.00
2012-10-15,54.0,50.7,48.0,49.0,44.8,42.0,94,81,66,29.58,29.28,0,-999,0,0.00
2012-10-16,54.0,50.3,44.0,48.0,42.2,40.0,88,74,59,29.54,29.06,0,-999,0,0.00
2012-10-17,58.0,53.5,50.0,49.0,46.9,44.0,94,79,71,29.41,29.05,0,-999,0,0.00
2012-10-18,56.0,54.4,52.0,51.0,49.1,46.0,87,82,74,29.57,29.14,0,-999,0,0.00
2012-10-19,56.0,53.3,48.0,52.0,50.0,46.0,96,88,79,29.81,29.59,0,-999,0,0.00
2012-10-20,58.0,55.0,52.0,52.0,48.4,39.0,92,79,54,30.03,29.76,0,-999,0,0.00
2012-10-21,59.0,54.5,51.0,52.0,49.2,45.0,93,82,60,30.15,30.03,0,-999,0,0.00
2012-10-22,56.0,53.3,49.0,53.0,50.2,46.0,91,88,79,30.26,30.13,0,-999,0,0.00
2012-10-23,57.0,54.7,53.0,55.0,53.6,52.0,100,95,91,30.36,30.22,0,-999,0,0.00
2012-10-24,57.0,55.5,54.0,55.0,53.3,52.0,97,92,85,30.30,30.07,0,-999,0,0.00
2012-10-25,55.0,53.2,52.0,52.0,48.5,42.0,94,84,69,30.12,30.03,0,-999,0,0.00
2012-10-26,50.0,45.9,40.0,41.0,34.8,25.0,75,64,48,30.16,30.03,0,-999,0,0.00
2012-10-27,48.0,44.1,37.0,38.0,32.0,25.0,73,62,48,30.33,30.06,0,-999,0,0.00
2012-10-28,50.0,48.7,47.0,45.0,44.0,41.0,89,83,75,0.00,40.00,0,-999,0,0.00
2012-10-29,51.0,47.9,43.0,47.0,43.0,39.0,97,83,69,0.00,40.00,0,-999,0,0.00
2012-10-30,51.0,47.8,42.0,45.0,41.5,38.0,88,78,66,29.77,29.30,0,-999,0,0.00
2012-10-31,52.0,46.9,42.0,44.0,40.6,36.0,89,79,72,29.28,28.86,0,-999,0,0.00
2012-11-1,49.0,43.6,36.0,40.0,36.7,33.0,95,77,60,29.00,28.80,0,-999,0,0.00
2012-11-2,50.0,45.8,42.0,41.0,37.9,34.0,83,73,60,29.29,28.99,0,-999,0,0.00
2012-11-3,49.0,45.1,39.0,39.0,34.2,31.0,77,66,49,29.34,29.21,0,-999,0,0.00
2012-11-4,50.0,48.3,45.0,41.0,38.7,35.0,82,69,61,29.44,29.14,0,-999,0,0.00
2012-11-5,50.0,46.0,39.0,43.0,38.7,35.0,85,76,62,30.10,29.47,0,-999,0,0.00
2012-11-6,53.0,49.2,45.0,47.0,43.3,40.0,92,80,67,30.27,30.05,0,-999,0,0.00
2012-11-7,54.0,51.1,49.0,49.0,44.6,42.0,91,78,72,30.28,30.07,0,-999,0,0.00
2012-11-8,52.0,50.3,47.0,46.0,44.6,42.0,90,81,71,30.13,29.90,0,-999,0,0.00
2012-11-9,53.0,50.4,47.0,50.0,44.9,40.0,94,81,69,29.90,29.47,0,-999,0,0.00
2012-11-10,50.0,46.6,43.0,43.0,39.4,36.0,85,76,68,29.58,29.32,0,-999,0,0.00
2012-11-11,51.0,46.8,40.0,44.0,41.0,37.0,90,80,71,30.02,29.60,0,-999,0,0.00
2012-11-12,58.0,53.6,48.0,54.0,50.6,42.0,94,89,75,30.03,29.82,0,-999,0,0.00
2012-11-13,58.0,55.6,53.0,54.0,51.8,48.0,98,87,69,30.13,29.93,0,-999,0,0.00
2012-11-14,55.0,53.5,51.0,52.0,49.1,45.0,94,84,70,30.26,30.13,0,-999,0,0.00
2012-11-15,54.0,52.1,50.0,51.0,47.1,44.0,94,83,72,30.27,30.05,0,-999,0,0.00
2012-11-16,51.0,48.5,46.0,47.0,44.2,42.0,94,85,78,30.03,29.75,0,-999,0,0.00
2012-11-17,49.0,45.4,41.0,46.0,39.6,35.0,95,80,62,29.86,29.66,0,-999,0,0.00
2012-11-18,51.0,46.1,40.0,48.0,38.2,34.0,89,74,59,29.92,29.52,0,-999,0,0.00
2012-11-19,55.0,53.1,50.0,53.0,48.9,45.0,98,86,69,29.61,29.31,0,-999,0,0.00
2012-11-20,55.0,52.8,48.0,54.0,47.2,37.0,97,82,58,29.67,29.35,0,-999,0,0.00
2012-11-21,54.0,50.7,49.0,50.0,43.6,40.0,89,76,66,29.75,29.63,0,-999,0,0.00
2012-11-22,56.0,49.9,45.0,51.0,44.2,36.0,91,80,67,29.68,29.32,0,-999,0,0.00
2012-11-23,50.0,47.0,43.0,41.0,38.6,36.0,77,72,62,29.94,29.53,0,-999,0,0.00
2012-11-24,48.0,45.0,38.0,44.0,37.7,32.0,92,76,55,29.98,29.47,0,-999,0,0.00
2012-11-25,49.0,43.6,35.0,44.0,38.4,34.0,94,82,55,29.63,29.38,0,-999,0,0.00
2012-11-26,48.0,45.1,43.0,43.0,40.3,37.0,94,83,71,29.87,29.39,0,-999,0,0.00
2012-11-27,48.0,44.5,40.0,40.0,37.2,34.0,85,75,69,30.13,29.68,0,-999,0,0.00
2012-11-28,48.0,42.8,35.0,38.0,34.5,32.0,91,72,59,30.18,30.01,0,-999,0,0.00
2012-11-29,46.0,41.2,35.0,39.0,34.2,29.0,90,77,56,30.02,29.81,0,-999,0,0.00
2012-11-30,47.0,43.3,37.0,42.0,37.0,32.0,89,78,68,29.93,29.76,0,-999,0,0.00
2012-12-1,47.0,42.2,38.0,41.0,36.6,31.0,95,81,58,30.04,29.85,0,-999,0,0.00
2012-12-2,49.0,43.2,36.0,49.0,38.3,32.0,97,82,66,29.98,29.63,0,-999,0,0.00
2012-12-3,52.0,47.3,43.0,51.0,40.9,37.0,97,79,66,29.71,29.53,0,-999,0,0.00
2012-12-6,46.0,43.9,40.0,42.0,38.9,36.0,87,82,75,29.74,29.34,0,-999,0,0.00
2012-12-7,49.0,44.1,40.0,41.0,37.2,33.0,84,76,68,30.08,29.35,0,-999,0,0.00
2012-12-8,49.0,45.0,36.0,44.0,39.4,32.0,89,80,67,30.25,30.06,0,-999,0,0.00
2012-12-9,48.0,45.6,41.0,45.0,39.9,34.0,90,80,63,30.20,29.99,0,-999,0,0.00
2012-12-10,47.0,43.4,36.0,39.0,34.2,31.0,86,69,60,30.35,30.08,0,-999,0,0.00
2012-12-11,44.0,41.5,38.0,36.0,33.8,31.0,88,73,60,30.40,30.16,0,-999,0,0.00
2012-12-12,45.0,42.3,36.0,41.0,36.3,32.0,88,78,66,30.20,29.65,0,-999,0,0.00
2012-12-13,42.0,40.4,39.0,37.0,31.6,27.0,85,71,60,29.73,29.21,0,-999,0,0.00
2012-12-14,48.0,44.3,38.0,47.0,40.5,30.0,95,86,72,29.25,28.65,0,-999,0,0.00
2012-12-15,50.0,48.1,46.0,44.0,42.0,40.0,83,79,74,0.00,40.00,0,-999,0,0.00
2012-12-16,50.0,47.9,46.0,46.0,42.3,39.0,90,80,71,0.00,40.00,0,-999,0,0.00
2012-12-17,48.0,46.8,45.0,44.0,42.2,39.0,90,83,76,0.00,40.00,0,-999,0,0.00
2012-12-18,49.0,46.0,39.0,45.0,41.6,38.0,96,85,71,0.00,40.00,0,-999,0,0.00
2012-12-19,49.0,46.8,42.0,48.0,43.5,36.0,99,89,71,0.00,40.00,0,-999,0,0.00
2012-12-20,48.0,46.3,45.0,48.0,45.3,43.0,100,96,89,0.00,40.00,0,-999,0,0.00
2012-12-21,49.0,47.1,46.0,46.0,43.8,42.0,96,88,83,0.00,40.00,0,-999,0,0.00
2012-12-22,58.0,51.7,48.0,54.0,50.1,44.0,100,94,81,0.00,40.00,0,-999,0,0.00
2012-12-23,54.0,49.7,48.0,52.0,43.1,39.0,98,78,67,0.00,40.00,0,-999,0,0.00
2012-12-24,51.0,48.6,47.0,48.0,44.8,41.0,94,86,72,0.00,40.00,0,-999,0,0.00
2012-12-25,48.0,46.6,45.0,45.0,42.5,36.0,94,85,65,0.00,40.00,0,-999,0,0.00
2012-12-26,50.0,47.5,46.0,47.0,41.4,37.0,95,79,66,0.00,40.00,0,-999,0,0.00
2012-12-27,47.0,45.5,42.0,42.0,39.4,38.0,88,79,72,0.00,40.00,0,-999,0,0.00
2012-12-28,57.0,52.7,45.0,51.0,47.9,42.0,97,84,72,0.00,40.00,0,-999,0,0.00
2012-12-29,52.0,47.3,41.0,51.0,41.0,34.0,96,79,69,0.00,40.00,0,-999,0,0.00
2012-12-30,53.0,46.4,40.0,48.0,39.9,34.0,89,78,69,0.00,40.00,0,-999,0,0.00
2012-12-31,54.0,49.0,42.0,49.0,44.5,36.0,92,84,73,0.00,40.00,0,-999,0,0.00
2013-1-1,46.0,43.7,39.0,40.0,37.1,34.0,83,77,71,0.00,40.00,0,-999,0,0.00